This is the latest recevied weather packets stored in our database for station/object DO1SN-13. If no packets are shown the sender has not sent any weather packets the latest 10 day(s).
| Time | Temp. | Humidity | Pressure | Rain* | Wind** | Luminosity | Snow |
|---|---|---|---|---|---|---|---|
| 1787837911 | 37.78° C | - | 1016.2 hPa | 0 mm | - | - | - |
| 1787837547 | 37.78° C | - | 1016.1 hPa | 0 mm | - | - | - |
| 1787837183 | 38.89° C | - | 1016 hPa | 0 mm | - | - | - |
| 1787836818 | 38.89° C | - | 1016.2 hPa | 0 mm | - | - | - |
| 1787836454 | 36.67° C | - | 1016.3 hPa | 0 mm | - | - | - |
| 1787836090 | 37.22° C | - | 1016.4 hPa | 0 mm | - | - | - |
| 1787835726 | 37.78° C | - | 1016.4 hPa | 0 mm | - | - | - |
| 1787835362 | 38.89° C | - | 1016.4 hPa | 0 mm | - | - | - |
| 1787834998 | 36.11° C | - | 1016.5 hPa | 0 mm | - | - | - |
| 1787834634 | 38.89° C | - | 1016.5 hPa | 0 mm | - | - | - |
| 1787834270 | 38.33° C | - | 1016.4 hPa | 0 mm | - | - | - |
| 1787833905 | 37.78° C | - | 1016.5 hPa | 0 mm | - | - | - |
| 1787833541 | 36.67° C | - | 1016.4 hPa | 0 mm | - | - | - |
| 1787833177 | 36.67° C | - | 1016.6 hPa | 0 mm | - | - | - |
| 1787832813 | 35.56° C | - | 1016.6 hPa | 0 mm | - | - | - |
| 1787832449 | 36.11° C | - | 1016.7 hPa | 0 mm | - | - | - |
| 1787832085 | 34.44° C | - | 1016.7 hPa | 0 mm | - | - | - |
| 1787831720 | 34.44° C | - | 1016.7 hPa | 0 mm | - | - | - |
| 1787831356 | 36.67° C | - | 1016.7 hPa | 0 mm | - | - | - |
| 1787830992 | 32.78° C | - | 1016.9 hPa | 0 mm | - | - | - |
| 1787830628 | 35.56° C | - | 1016.8 hPa | 0 mm | - | - | - |
| 1787830264 | 36.11° C | - | 1016.9 hPa | 0 mm | - | - | - |
| 1787829900 | 36.11° C | - | 1016.9 hPa | 0 mm | - | - | - |
| 1787829535 | 34.44° C | - | 1017 hPa | 0 mm | - | - | - |
| 1787829171 | 35° C | - | 1016.9 hPa | 0 mm | - | - | - |
* Rain latest hour (hover to see other rain measurements)
** Current wind speed in m/s (hover to see current wind gust speed)